Date,TemperatureHighF,TemperatureAvgF,TemperatureLowF,DewpointHighF,DewpointAvgF,DewpointLowF,HumidityHigh,HumidityAvg,HumidityLow,PressureMaxIn,PressureMinIn,WindSpeedMaxMPH,WindSpeedAvgMPH,GustSpeedMaxMPH,PrecipitationSumIn
2013-1-1,24.0,18.5,13.0,18.0,15.1,10.0,92,86,70,0.00,40.00,26,13,50,0.00
2013-1-2,30.0,15.4,12.0,10.0,4.3,-22.0,88,64,9,0.00,40.00,30,21,44,0.00
2013-1-3,43.0,37.9,26.0,1.0,-11.6,-35.0,19,12,4,0.00,40.00,18,12,27,0.00
2013-1-4,39.0,30.4,25.0,19.0,12.5,-9.0,76,51,12,0.00,40.00,33,25,54,0.00
2013-1-5,33.0,26.1,21.0,19.0,13.1,-4.0,76,60,20,0.00,40.00,24,18,44,0.00
2013-1-6,34.0,30.2,23.0,18.0,9.8,-6.0,64,45,18,0.00,40.00,32,25,54,0.00
2013-1-7,31.0,26.1,22.0,27.0,18.5,13.0,98,74,55,0.00,40.00,32,21,55,0.00
2013-1-8,30.0,25.5,23.0,26.0,17.3,8.0,98,72,49,0.00,40.00,32,23,62,0.00
2013-1-9,42.0,36.3,30.0,23.0,17.6,12.0,68,48,32,0.00,40.00,34,27,58,0.00
2013-1-10,39.0,18.9,0.0,25.0,10.2,-4.0,96,73,36,0.00,40.00,22,10,35,0.00
2013-1-11,0.0,-4.4,-6.0,-4.0,-9.4,-11.0,81,79,78,0.00,40.00,11,4,16,0.00
2013-1-12,6.0,1.5,-2.0,2.0,-2.6,-7.0,83,81,80,0.00,40.00,4,1,9,0.00
2013-1-13,9.0,3.3,0.0,5.0,-0.7,-5.0,85,82,80,0.00,40.00,6,2,8,0.00
2013-1-14,18.0,7.4,3.0,16.0,3.6,-1.0,90,84,81,0.00,40.00,7,4,15,0.00
2013-1-15,28.0,23.7,18.0,25.0,20.7,16.0,96,89,67,0.00,40.00,32,14,53,0.00
2013-1-16,32.0,29.6,26.0,20.0,16.0,12.0,69,57,43,0.00,40.00,33,25,63,0.00
2013-1-17,38.0,32.9,28.0,19.0,13.9,11.0,67,46,36,0.00,40.00,36,25,68,0.00
2013-1-18,38.0,34.2,31.0,13.0,9.9,6.0,45,36,30,0.00,40.00,38,29,68,0.00
2013-1-19,31.0,26.7,19.0,22.0,15.0,7.0,95,63,37,0.00,40.00,34,17,53,0.00
2013-1-20,24.0,10.7,6.0,16.0,6.8,2.0,89,85,63,0.00,40.00,34,9,53,0.00
2013-1-21,34.0,26.6,15.0,14.0,8.7,3.0,89,51,27,0.00,40.00,26,20,39,0.00
2013-1-22,36.0,33.1,30.0,4.0,1.0,-4.0,32,25,18,0.00,40.00,25,18,36,0.00
2013-1-23,41.0,36.2,32.0,14.0,2.5,-2.0,36,24,19,0.00,40.00,27,17,40,0.00
2013-1-24,40.0,32.4,26.0,22.0,16.2,10.0,70,52,30,0.00,40.00,30,23,59,0.00
2013-1-25,39.0,33.5,30.0,24.0,19.0,8.0,61,55,39,0.00,40.00,27,21,46,0.00
2013-1-26,45.0,35.0,27.0,28.0,22.9,-99.9,99,65,38,0.00,40.00,22,15,30,0.00
2013-1-27,25.0,20.4,19.0,24.0,14.2,-99.9,97,87,78,0.00,40.00,7,0,12,0.00
2013-1-28,25.0,18.8,16.0,12.0,9.3,7.0,78,66,52,0.00,40.00,16,10,23,0.00
2013-1-29,16.0,4.2,-7.0,14.0,0.1,-12.0,90,83,77,0.00,40.00,15,9,24,0.00
2013-1-30,19.0,13.6,7.0,17.0,10.7,3.0,92,88,84,0.00,40.00,23,15,37,0.00
2013-1-31,27.0,23.0,10.0,27.0,22.0,7.0,99,95,86,0.00,40.00,22,13,36,0.00
2013-2-1,27.0,24.4,22.0,27.0,19.3,-99.9,99,94,96,0.00,40.00,22,7,35,0.00
2013-2-2,32.0,26.6,22.0,23.0,20.2,16.0,94,77,53,0.00,40.00,23,17,43,0.00
2013-2-3,34.0,30.8,27.0,20.0,13.9,6.0,66,50,33,0.00,40.00,30,22,54,0.00
2013-2-4,32.0,29.6,27.0,22.0,19.3,15.0,76,65,56,0.00,40.00,29,24,52,0.00
2013-2-5,36.0,30.6,26.0,26.0,20.2,15.0,82,66,45,0.00,40.00,25,18,42,0.00
2013-2-6,32.0,28.1,24.0,20.0,15.0,12.0,71,58,45,0.00,40.00,24,19,46,0.00
2013-2-7,33.0,28.6,23.0,12.0,8.2,6.0,59,42,31,0.00,40.00,19,14,31,0.00
2013-2-8,36.0,28.1,24.0,19.0,13.8,8.0,75,55,40,0.00,40.00,14,9,20,0.00
2013-2-9,33.0,24.2,19.0,18.0,15.1,12.0,93,70,46,0.00,40.00,17,9,28,0.00
2013-2-10,18.0,11.2,8.0,16.0,7.9,4.0,91,86,85,0.00,40.00,13,4,24,0.00
2013-2-11,28.0,19.6,8.0,21.0,13.2,4.0,88,77,60,0.00,40.00,17,4,32,0.00
2013-2-12,30.0,24.7,20.0,21.0,16.8,12.0,79,72,66,0.00,40.00,32,22,56,0.00
2013-2-13,29.0,25.2,14.0,24.0,19.4,11.0,95,79,60,0.00,40.00,33,23,56,0.00
2013-2-14,19.0,14.5,11.0,16.0,11.5,8.0,90,88,86,0.00,40.00,19,5,34,0.00
2013-2-15,30.0,23.8,16.0,21.0,16.6,11.0,90,74,57,0.00,40.00,26,20,45,0.00
2013-2-16,42.0,34.2,29.0,24.0,20.8,18.0,76,59,45,0.00,40.00,24,20,43,0.00
2013-2-17,34.0,23.3,18.0,27.0,19.9,14.0,98,87,53,0.00,40.00,32,17,52,0.00
2013-2-18,24.0,16.2,12.0,23.0,13.6,9.0,97,90,88,0.00,40.00,0,0,0,0.03
2013-2-19,23.0,16.9,12.0,18.0,12.7,9.0,89,84,70,0.00,40.00,4,0,6,0.01
2013-2-20,29.0,20.5,18.0,22.0,17.0,16.0,92,87,71,0.00,40.00,7,5,12,0.00
2013-2-21,28.0,20.6,18.0,25.0,12.5,6.0,95,72,49,0.00,40.00,15,8,22,0.00
2013-2-22,28.0,22.6,16.0,15.0,11.6,9.0,80,63,52,0.00,40.00,28,18,40,0.00
2013-2-23,29.0,25.0,19.0,19.0,15.7,11.0,94,68,55,0.00,40.00,26,17,42,0.00
2013-2-24,28.0,20.9,16.0,17.0,12.7,8.0,92,73,44,0.00,40.00,21,11,29,0.00
2013-2-25,32.0,25.9,22.0,19.0,14.0,10.0,80,61,48,0.00,40.00,24,17,39,0.00
2013-2-26,22.0,19.1,18.0,18.0,15.2,11.0,92,85,64,0.00,40.00,23,13,40,0.00
2013-2-27,30.0,22.7,15.0,17.0,13.9,12.0,91,70,48,0.00,40.00,18,9,31,0.00
2013-2-28,31.0,24.7,20.0,19.0,14.0,9.0,93,64,52,0.00,40.00,22,15,35,0.00
2013-3-1,43.0,36.3,27.0,29.0,24.5,14.0,72,62,54,0.00,40.00,28,23,50,0.00
2013-3-2,46.0,40.0,36.0,25.0,20.7,17.0,59,46,37,0.00,40.00,26,19,47,0.00
2013-3-3,38.0,27.2,11.0,25.0,18.4,5.0,96,71,46,0.00,40.00,33,21,56,0.00
2013-3-4,9.0,7.1,5.0,5.0,3.1,1.0,85,84,83,0.00,40.00,28,13,57,0.00
2013-3-5,28.0,16.9,7.0,25.0,13.5,3.0,90,86,76,0.00,40.00,16,9,20,0.00
2013-3-6,34.0,31.0,25.0,30.0,16.1,5.0,99,57,36,0.00,40.00,24,13,40,0.00
2013-3-7,32.0,27.6,23.0,28.0,20.3,13.0,99,76,47,0.00,40.00,23,13,44,0.00
2013-3-8,40.0,29.3,25.0,26.0,15.8,7.0,71,57,45,0.00,40.00,18,9,27,0.00
2013-3-9,28.0,24.3,22.0,17.0,14.0,7.0,76,65,43,0.00,40.00,21,18,40,0.00
2013-3-10,39.0,33.0,28.0,20.0,15.3,13.0,68,48,38,0.00,40.00,26,17,43,0.00
2013-3-11,29.0,19.8,15.0,22.0,16.6,12.0,92,87,68,0.00,40.00,21,12,41,0.00
2013-3-12,35.0,22.9,13.0,31.0,19.0,10.0,99,85,62,0.00,40.00,27,13,48,0.00
2013-3-13,48.0,40.2,34.0,28.0,24.5,21.0,68,54,39,0.00,40.00,31,23,48,0.00
2013-3-14,47.0,43.2,39.0,26.0,23.6,21.0,53,46,38,0.00,40.00,23,17,40,0.00
2013-3-15,46.0,38.0,30.0,25.0,22.2,19.0,76,54,36,0.00,40.00,32,20,62,0.00
2013-3-16,37.0,30.3,27.0,29.0,24.1,20.0,98,78,50,0.00,40.00,20,12,26,0.00
2013-3-17,33.0,16.6,1.0,28.0,13.2,-3.0,99,87,62,0.00,40.00,25,12,48,0.00
2013-3-18,21.0,13.2,1.0,19.0,10.4,-3.0,92,88,82,0.00,40.00,13,8,25,0.00
2013-3-19,25.0,16.9,10.0,22.0,13.3,7.0,90,85,64,0.00,40.00,17,5,23,0.00
2013-3-20,44.0,36.6,25.0,25.0,14.1,-8.0,56,41,19,0.00,40.00,27,20,41,0.00
2013-3-21,35.0,27.4,20.0,30.0,11.3,3.0,99,53,30,0.00,40.00,31,18,49,0.00
2013-3-22,19.0,13.4,8.0,17.0,10.4,3.0,92,87,75,0.00,40.00,16,10,28,0.00
2013-3-23,14.0,6.6,0.0,11.0,2.8,-4.0,87,84,81,0.00,40.00,16,12,30,0.00
2013-3-24,19.0,9.5,2.0,15.0,5.4,-2.0,85,83,74,0.00,40.00,23,12,34,0.00
2013-3-25,37.0,26.7,14.0,10.0,3.5,-1.0,79,38,26,0.00,40.00,12,8,20,0.00
2013-3-26,41.0,32.1,25.0,13.0,8.8,3.0,55,38,30,0.00,40.00,17,7,26,0.00
2013-3-27,45.0,35.7,27.0,19.0,14.5,11.0,53,42,32,0.00,40.00,16,9,25,0.00
2013-3-28,47.0,42.0,38.0,27.0,23.9,21.0,61,49,38,0.00,40.00,9,4,14,0.00
2013-3-29,42.0,38.0,33.0,28.0,25.3,22.0,79,61,49,0.00,40.00,15,11,25,0.00
2013-3-30,41.0,35.3,31.0,24.0,20.0,15.0,72,55,36,0.00,40.00,17,13,37,0.00
2013-3-31,38.0,34.1,31.0,25.0,20.4,16.0,67,57,42,0.00,40.00,22,14,38,0.00
2013-4-1,45.0,35.1,29.0,21.0,18.4,16.0,69,51,37,0.00,40.00,21,9,31,0.00
2013-4-2,58.0,46.0,29.0,22.0,16.6,12.0,69,33,19,0.00,40.00,20,9,35,0.00
2013-4-3,46.0,38.6,32.0,28.0,24.9,19.0,67,58,36,0.00,40.00,23,15,38,0.00
2013-4-4,46.0,35.8,24.0,29.0,25.2,20.0,85,65,46,0.00,40.00,23,14,33,0.00
2013-4-5,50.0,43.2,37.0,31.0,26.5,20.0,68,52,34,0.00,40.00,24,18,40,0.00
2013-4-6,47.0,37.8,33.0,30.0,23.8,20.0,69,57,40,0.00,40.00,25,16,45,0.00
2013-4-7,38.0,31.9,18.0,33.0,23.4,16.0,99,73,52,0.00,40.00,27,15,45,0.03
2013-4-8,18.0,13.1,7.0,16.0,10.2,3.0,92,88,85,0.00,40.00,6,0,15,0.01
2013-4-9,29.0,14.4,6.0,26.0,8.9,-10.0,93,80,34,0.00,40.00,3,0,11,0.11
2013-4-10,40.0,34.7,18.0,29.0,21.0,-13.0,75,58,22,0.00,40.00,19,10,31,0.10
2013-4-11,36.0,31.2,27.0,33.0,29.7,27.0,99,94,73,0.00,40.00,25,15,45,0.02
2013-4-12,32.0,25.6,23.0,32.0,17.6,-99.9,99,87,75,0.00,40.00,23,9,36,0.07
2013-4-13,34.0,30.2,23.0,29.0,20.4,6.0,99,68,38,0.00,40.00,25,17,41,0.01
2013-4-14,23.0,16.8,10.0,23.0,14.8,7.0,98,92,87,0.00,40.00,16,4,32,0.00
2013-4-15,21.0,13.7,8.0,20.0,11.4,5.0,95,90,86,0.00,40.00,0,0,4,0.00
2013-4-16,21.0,13.9,10.0,20.0,11.2,7.0,95,88,86,0.00,40.00,0,0,0,0.00
2013-4-17,22.0,15.3,10.0,20.0,12.9,7.0,96,90,87,0.00,40.00,0,0,0,0.00
2013-4-18,35.0,26.2,15.0,22.0,17.8,13.0,91,72,51,0.00,40.00,20,10,40,0.08
2013-4-19,37.0,32.0,27.0,34.0,24.7,18.0,98,75,52,0.00,40.00,16,12,29,0.03
2013-4-20,43.0,34.2,32.0,33.0,28.7,24.0,99,81,57,0.00,40.00,25,17,38,0.01
2013-4-21,28.0,17.6,14.0,28.0,15.9,12.0,99,93,91,0.00,40.00,17,2,22,0.00
2013-4-22,27.0,18.3,11.0,27.0,16.5,8.0,98,92,88,0.00,40.00,0,0,0,0.13
2013-4-23,33.0,23.8,15.0,23.0,16.2,11.0,92,74,50,0.00,40.00,21,7,36,0.08
2013-4-24,42.0,29.1,20.0,33.0,22.7,15.0,99,81,38,0.00,40.00,22,11,37,0.01
2013-4-25,48.0,40.3,32.0,21.0,17.8,12.0,50,40,32,0.00,40.00,23,18,40,0.01
2013-4-26,58.0,46.9,37.0,26.0,22.0,19.0,50,38,24,0.00,40.00,21,14,38,0.00
2013-4-27,55.0,48.9,44.0,25.0,21.1,16.0,42,34,25,0.00,40.00,29,23,51,0.00
2013-4-28,51.0,43.2,37.0,32.0,26.6,18.0,77,53,38,0.00,40.00,31,15,55,0.00
2013-4-29,46.0,38.3,22.0,22.0,17.1,8.0,96,43,25,0.00,40.00,36,23,68,0.00
2013-4-30,23.0,19.6,16.0,22.0,12.3,-99.9,96,86,76,0.00,40.00,21,9,42,0.00
2013-5-1,35.0,26.0,16.0,18.0,12.1,8.0,92,58,35,0.00,40.00,14,6,23,0.00
2013-5-2,53.0,39.8,26.0,16.0,12.4,9.0,60,35,20,0.00,40.00,15,9,23,0.00
2013-5-3,45.0,38.1,33.0,37.0,27.1,11.0,99,70,26,0.00,40.00,18,11,29,0.22
2013-5-4,42.0,36.5,32.0,39.0,31.8,23.0,100,84,54,0.00,40.00,17,10,31,0.31
2013-5-5,54.0,44.4,35.0,25.0,21.8,18.0,56,41,31,0.00,40.00,13,9,22,0.02
2013-5-6,62.0,52.4,42.0,26.0,23.3,17.0,38,32,24,0.00,40.00,16,9,28,0.00
2013-5-7,60.0,54.2,46.0,32.0,27.0,21.0,56,36,25,0.00,40.00,23,14,37,0.00
2013-5-8,58.0,47.0,41.0,34.0,29.8,23.0,69,52,37,0.00,40.00,22,12,33,0.00
2013-5-9,63.0,52.0,41.0,38.0,33.2,30.0,68,50,33,0.00,40.00,17,7,24,0.00
2013-5-10,52.0,46.7,38.0,33.0,24.4,-99.9,70,44,32,0.00,40.00,25,12,41,0.00
2013-5-11,65.0,50.6,36.0,32.0,24.2,14.0,43,35,29,0.00,40.00,14,9,23,0.00
2013-5-12,73.0,64.0,55.0,37.0,34.5,29.0,45,34,22,0.00,40.00,18,14,43,0.00
2013-5-13,76.0,63.1,52.0,42.0,36.9,30.0,68,39,24,0.00,40.00,29,15,53,0.00
2013-5-14,58.0,47.3,40.0,39.0,22.1,13.0,77,39,21,0.00,40.00,31,20,52,0.00
2013-5-15,61.0,47.4,39.0,26.0,18.8,14.0,37,32,26,0.00,40.00,15,9,23,0.00
2013-5-16,55.0,42.2,37.0,41.0,12.5,-99.9,96,64,29,0.00,40.00,12,8,20,0.61
2013-5-17,47.0,43.7,41.0,44.0,34.0,-99.9,99,83,64,0.00,40.00,14,6,21,0.04
2013-5-18,44.0,41.9,41.0,44.0,41.9,41.0,100,100,99,0.00,40.00,14,8,20,0.10
2013-5-19,43.0,40.4,37.0,43.0,40.4,37.0,100,100,100,0.00,40.00,18,13,32,1.78
2013-5-20,52.0,43.6,39.0,44.0,32.9,10.0,100,75,23,0.00,40.00,18,12,34,0.48
2013-5-21,54.0,46.7,38.0,39.0,22.0,6.0,100,41,22,0.00,40.00,22,10,44,0.01
2013-5-22,44.0,38.7,34.0,43.0,38.0,34.0,100,97,81,0.00,40.00,31,26,59,0.07
2013-5-23,44.0,40.2,37.0,44.0,40.2,37.0,100,100,99,0.00,40.00,30,19,60,0.63
2013-5-24,53.0,42.7,32.0,41.0,30.5,21.0,100,69,28,0.00,40.00,27,16,41,0.76
2013-5-25,55.0,48.2,39.0,37.0,31.0,24.0,68,52,41,0.00,40.00,13,8,22,0.01
2013-5-26,60.0,50.3,41.0,45.0,38.5,31.0,100,65,48,0.00,40.00,16,9,26,0.54
2013-5-27,49.0,44.1,40.0,47.0,41.0,34.0,100,89,72,0.00,40.00,19,12,52,0.73
2013-5-28,52.0,45.4,40.0,44.0,36.5,30.0,100,71,56,0.00,40.00,17,9,28,0.20
2013-5-29,44.0,42.0,41.0,43.0,40.4,34.0,100,94,72,0.00,40.00,12,6,16,0.65
2013-5-30,42.0,38.8,36.0,42.0,38.8,36.0,100,100,100,0.00,40.00,27,17,53,3.23
2013-5-31,38.0,36.8,34.0,38.0,36.8,34.0,100,100,100,0.00,40.00,33,25,62,2.77
2013-6-1,55.0,45.6,37.0,44.0,38.7,34.0,100,79,47,0.00,40.00,21,9,35,0.04
2013-6-2,54.0,46.7,41.0,45.0,39.2,32.0,100,77,56,0.00,40.00,17,12,30,1.71
2013-6-3,41.0,35.0,31.0,41.0,35.0,31.0,100,100,100,0.00,40.00,23,11,47,2.65
2013-6-4,46.0,34.5,31.0,40.0,32.6,24.0,100,94,60,0.00,40.00,20,3,17,0.36
2013-6-5,61.0,48.6,36.0,37.0,30.0,23.0,69,50,32,0.00,40.00,28,7,169,0.06
2013-6-6,65.0,55.0,50.0,44.0,40.0,31.0,76,58,45,0.00,40.00,14,5,147,0.00
2013-6-7,69.0,59.2,50.0,45.0,40.9,37.0,70,52,38,0.00,40.00,23,12,49,0.00
2013-6-8,57.0,50.1,43.0,43.0,39.3,34.0,99,68,44,0.00,40.00,32,16,62,0.00
2013-6-9,70.0,57.4,48.0,42.0,34.7,31.0,79,45,24,0.00,40.00,23,13,35,0.00
2013-6-10,65.0,56.6,48.0,44.0,37.3,30.0,75,50,28,0.00,40.00,18,8,34,0.00
2013-6-11,61.0,50.5,45.0,52.0,47.2,43.0,100,89,64,0.00,40.00,22,11,40,0.92
2013-6-12,61.0,51.5,46.0,55.0,49.8,45.0,100,94,71,0.00,40.00,23,13,38,0.41
2013-6-13,59.0,48.9,41.0,53.0,47.5,41.0,100,96,56,0.00,40.00,22,12,38,0.17
2013-6-14,52.0,43.8,37.0,42.0,34.4,27.0,100,73,45,0.00,40.00,25,17,44,0.17
2013-6-15,60.0,49.8,40.0,34.0,28.8,25.0,60,46,26,0.00,40.00,26,15,47,0.00
2013-6-16,59.0,54.2,50.0,42.0,39.2,34.0,65,57,50,0.00,40.00,11,8,24,0.00
2013-6-17,67.0,57.2,48.0,47.0,41.1,34.0,73,56,40,0.00,40.00,20,9,32,0.00
2013-6-18,74.0,62.7,53.0,55.0,46.7,36.0,75,57,36,0.00,40.00,20,15,37,0.00
2013-6-19,68.0,60.5,43.0,52.0,45.1,36.0,99,59,36,0.00,40.00,33,16,74,0.04
2013-6-20,54.0,45.6,40.0,36.0,30.1,27.0,73,56,36,0.00,40.00,36,24,55,0.04
2013-6-22,51.0,46.3,41.0,45.0,42.4,38.0,99,87,61,0.00,40.00,12,5,26,0.85
2013-6-23,64.0,52.7,42.0,41.0,36.9,34.0,88,58,36,0.00,40.00,14,10,21,0.01
2013-6-24,69.0,62.0,52.0,51.0,45.2,36.0,83,55,43,0.00,40.00,22,14,38,0.19
2013-6-25,66.0,56.9,47.0,48.0,43.1,39.0,99,63,38,0.00,40.00,21,12,33,0.19
2013-6-27,69.0,60.4,53.0,44.0,40.7,37.0,64,49,36,0.00,40.00,21,10,38,0.00
2013-6-28,72.0,68.2,61.0,50.0,45.8,43.0,68,45,39,0.00,40.00,13,8,26,0.00
2013-6-29,79.0,70.4,59.0,54.0,51.3,45.0,81,52,41,0.00,40.00,15,7,25,0.00
2013-6-30,79.0,68.4,60.0,57.0,51.9,46.0,80,56,42,0.00,40.00,14,8,23,0.00
2013-7-1,78.0,70.9,60.0,56.0,50.4,44.0,66,50,30,0.00,40.00,14,8,24,0.00
2013-7-2,83.0,78.2,72.0,52.0,50.2,48.0,49,38,32,0.00,40.00,12,6,15,0.00
2013-7-3,83.0,74.8,64.0,58.0,47.8,40.0,80,40,25,0.00,40.00,19,11,29,0.00
2013-7-4,72.0,63.4,53.0,66.0,57.3,49.0,100,82,51,0.00,40.00,16,8,44,1.15
2013-7-5,67.0,60.5,51.0,53.0,49.1,46.0,99,67,53,0.00,40.00,18,11,30,0.47
2013-7-6,62.0,53.2,45.0,48.0,45.1,39.0,99,75,60,0.00,40.00,17,12,25,0.47
2013-7-7,70.0,58.0,50.0,54.0,49.3,43.0,93,74,52,0.00,40.00,18,13,30,0.09
2013-7-8,70.0,58.6,49.0,56.0,49.5,39.0,99,74,48,0.00,40.00,21,10,40,0.09
2013-7-9,69.0,57.5,47.0,48.0,44.1,39.0,99,63,43,0.00,40.00,17,8,25,0.00
2013-7-10,84.0,69.2,56.0,47.0,36.4,-99.9,70,34,19,0.00,40.00,20,10,32,0.00
2013-7-11,76.0,68.5,62.0,44.0,38.9,33.0,46,34,25,0.00,40.00,29,18,52,0.00
2013-7-12,72.0,61.1,53.0,49.0,39.2,30.0,82,46,31,0.00,40.00,23,13,36,0.17
2013-7-13,62.0,56.4,50.0,50.0,41.5,34.0,89,59,45,0.00,40.00,20,14,34,0.07
2013-7-14,64.0,55.2,46.0,50.0,41.6,32.0,90,62,41,0.00,40.00,20,16,35,0.35
2013-7-15,81.0,70.2,55.0,50.0,39.6,32.0,73,37,18,0.00,40.00,25,12,38,0.35
2013-7-16,63.0,57.6,52.0,47.0,43.7,40.0,82,60,49,0.00,40.00,19,11,31,0.00
2013-7-17,71.0,58.7,50.0,67.0,54.5,47.0,100,87,63,0.00,40.00,23,16,59,0.17
2013-7-18,74.0,65.9,58.0,47.0,41.4,36.0,66,42,30,0.00,40.00,22,14,35,0.01
2013-7-19,77.0,70.1,60.0,43.0,37.7,30.0,47,31,22,0.00,40.00,14,8,22,0.00
2013-7-20,78.0,66.5,56.0,47.0,42.3,-99.9,60,43,32,0.00,40.00,15,6,21,0.00
2013-7-21,71.0,65.7,59.0,46.0,39.5,30.0,59,39,29,0.00,40.00,16,12,28,0.00
2013-7-22,76.0,66.1,57.0,46.0,39.2,30.0,64,40,20,0.00,40.00,19,13,37,0.00
2013-7-23,72.0,66.6,58.0,49.0,44.5,36.0,64,46,37,0.00,40.00,14,7,21,0.00
2013-7-24,81.0,70.0,55.0,51.0,44.3,41.0,86,43,26,0.00,40.00,27,10,41,0.04
2013-7-25,66.0,58.3,48.0,55.0,47.5,41.0,87,68,52,0.00,40.00,21,9,41,0.04
2013-7-26,70.0,56.3,45.0,50.0,43.1,38.0,83,63,47,0.00,40.00,21,16,34,0.00
2013-7-27,80.0,67.8,50.0,42.0,39.5,34.0,64,37,22,0.00,40.00,21,9,34,0.00
2013-7-28,69.0,56.3,49.0,49.0,46.2,40.0,98,70,42,0.00,40.00,22,9,27,0.00
2013-7-29,57.0,49.6,44.0,57.0,47.6,40.0,99,93,52,0.00,40.00,22,10,32,0.60
2013-7-30,60.0,53.8,50.0,51.0,48.0,44.0,97,81,67,0.00,40.00,21,6,30,0.03
2013-7-31,71.0,64.1,52.0,52.0,47.5,41.0,85,56,41,0.00,40.00,14,6,23,0.00
2013-8-1,66.0,56.7,48.0,51.0,43.9,38.0,99,65,44,0.00,40.00,20,14,34,0.25
2013-8-2,59.0,50.8,46.0,54.0,49.3,43.0,100,95,75,0.00,40.00,19,9,36,0.86
2013-8-3,61.0,54.4,48.0,53.0,48.8,39.0,99,82,64,0.00,40.00,19,8,39,1.25
2013-8-4,69.0,60.7,48.0,49.0,44.9,39.0,99,58,46,0.00,40.00,15,7,23,0.24
2013-8-5,68.0,63.0,52.0,48.0,41.6,35.0,64,47,33,0.00,40.00,31,16,54,0.00
2013-8-6,65.0,55.9,48.0,48.0,42.9,36.0,99,65,35,0.00,40.00,16,12,32,0.00
2013-8-7,68.0,61.0,51.0,53.0,46.4,37.0,88,61,41,0.00,40.00,13,8,25,0.00
2013-8-8,68.0,58.9,51.0,52.0,48.0,45.0,88,68,55,0.00,40.00,13,7,19,0.00
2013-8-9,65.0,56.4,50.0,48.0,45.1,40.0,76,66,54,0.00,40.00,14,12,28,0.00
2013-9-24,57.0,46.1,38.0,41.0,30.4,22.0,99,57,34,0.00,40.00,29,12,47,0.23
2013-9-25,39.0,36.4,32.0,39.0,36.4,32.0,99,99,99,0.00,40.00,18,10,31,0.51
2013-9-26,33.0,30.8,30.0,33.0,30.8,30.0,99,99,99,0.00,40.00,15,2,25,0.01
2013-9-27,41.0,33.4,28.0,38.0,29.7,24.0,99,87,56,0.00,40.00,23,8,36,0.35
2013-9-28,49.0,41.5,32.0,34.0,29.9,26.0,80,64,48,0.00,40.00,29,22,47,0.01
2013-9-29,52.0,45.1,38.0,34.0,27.9,23.0,76,51,40,0.00,40.00,36,26,65,0.01
2013-9-30,48.0,42.1,37.0,40.0,27.4,16.0,99,58,35,0.00,40.00,30,24,61,0.18
2013-12-26,40.0,35.4,30.0,27.0,22.2,16.0,65,58,51,0.00,40.00,37,26,64,0.00
2013-12-27,48.0,41.7,39.0,25.0,14.8,9.0,55,34,25,0.00,40.00,33,24,52,0.00
2013-12-28,39.0,9.4,-5.0,22.0,1.6,-11.0,86,73,28,0.00,40.00,27,14,50,0.00
2013-12-29,27.0,21.4,12.0,19.0,14.4,8.0,88,75,55,0.00,40.00,24,17,47,0.00
2013-12-30,32.0,25.5,20.0,25.0,19.7,17.0,92,79,57,0.00,40.00,24,16,40,0.00
2013-12-31,32.0,27.3,21.0,28.0,22.9,17.0,96,84,71,0.00,40.00,24,17,46,0.00
2014-1-1,23.0,19.2,20.0,20.0,0.9,-99.9,91,77,84,0.00,40.00,14,8,23,0.00
2014-1-2,37.0,31.1,22.0,25.0,20.2,14.0,72,64,57,0.00,40.00,35,25,53,0.00